Weather History for Auburn, CA

Change the Weather History Date:

Saturday, October 27, 2012

  Actual Average Record
Temperature  
Mean Temperature 62 °F -  
Max Temperature 75 °F 70 °F 87 °F (1965)
Min Temperature 50 °F 48 °F 35 °F (2004)
Degree Days  
Heating Degree Days 2    
Growing Degree Days 12 (Base 50)    
Moisture  
Dew Point 48 °F    
Average Humidity 62    
Maximum Humidity 82    
Minimum Humidity 38    
Precipitation  
Precipitation 0.00 in - - ()
Sea Level Pressure  
Sea Level Pressure 30.04 in    
Wind  
Wind Speed 1 mph (WNW)    
Max Wind Speed 8 mph    
Max Gust Speed -    
Visibility 10 miles    
Events      
Averages and records for this station are not official NWS values.
T = Trace of Precipitation, MM = Missing Value Source: NWS Daily Summary

Daily Weather History Graph

Daily Weather History Graph

Search for Another Location

Airport:

Trip Planner

Search our weather history database for the weather conditions in past years. The results will help you decide how hot, cold, wet, or windy it might be!

Date:

Astronomy

Oct. 27, 2012 Rise Set
Actual Time 7:26 AM PDT 6:08 PM PDT
Civil Twilight 6:59 AM PDT 6:36 PM PDT
Nautical Twilight 6:28 AM PDT 7:07 PM PDT
Astronomical Twilight 5:57 AM PDT 7:38 PM PDT
Moon 4:57 PM PDT (10/27) 5:27 AM PDT (10/27)
Length of Visible Light 11h 36m
Length of Day
10h 42m
Waxing Gibbous, 96% of the Moon is Illuminated
Oct 27
Waxing Gibbous
Oct 29
Full
Nov 6
Last Quarter
Nov 13
New
Nov 20
First Quarter

Hourly Weather History & Observations

Time (PDT) Temp. Dew Point Humidity Pressure Visibility Wind Dir Wind Speed Gust Speed Precip Events Conditions
12:15 AM 55.4 °F 48.2 °F 77% 30.11 in 10.0 mi Calm Calm - N/A   Clear
12:35 AM 55.4 °F 46.4 °F 72% 30.11 in 10.0 mi Calm Calm - N/A   Clear
12:55 AM 57.2 °F 46.4 °F 67% 30.11 in 10.0 mi Calm Calm - N/A   Clear
1:15 AM 57.2 °F 46.4 °F 67% 30.10 in 10.0 mi ENE 3.5 mph - N/A   Clear
1:35 AM 59.0 °F 46.4 °F 63% 30.10 in 10.0 mi Calm Calm - N/A   Clear
1:55 AM 57.2 °F 46.4 °F 67% 30.08 in 10.0 mi East 3.5 mph - N/A   Clear
2:15 AM 57.2 °F 46.4 °F 67% 30.08 in 10.0 mi East 3.5 mph - N/A   Clear
2:35 AM 55.4 °F 44.6 °F 67% 30.09 in 10.0 mi Calm Calm - N/A   Clear
2:55 AM 53.6 °F 46.4 °F 77% 30.09 in 10.0 mi Calm Calm - N/A   Clear
3:15 AM 55.4 °F 44.6 °F 67% 30.09 in 10.0 mi Calm Calm - N/A   Clear
3:35 AM 53.6 °F 44.6 °F 72% 30.08 in 10.0 mi Calm Calm - N/A   Clear
3:55 AM 53.6 °F 44.6 °F 72% 30.08 in 10.0 mi Calm Calm - N/A   Clear
4:15 AM 53.6 °F 44.6 °F 72% 30.07 in 10.0 mi Calm Calm - N/A   Clear
4:35 AM 53.6 °F 44.6 °F 72% 30.07 in 10.0 mi Calm Calm - N/A   Clear
4:55 AM 53.6 °F 44.6 °F 72% 30.06 in 10.0 mi Calm Calm - N/A   Clear
5:15 AM 51.8 °F 44.6 °F 76% 30.06 in 10.0 mi Calm Calm - N/A   Clear
5:35 AM 51.8 °F 44.6 °F 76% 30.07 in 10.0 mi Calm Calm - N/A   Clear
5:55 AM 51.8 °F 44.6 °F 76% 30.07 in 10.0 mi Calm Calm - N/A   Clear
6:15 AM 51.8 °F 44.6 °F 76% 30.06 in 10.0 mi Calm Calm - N/A   Clear
6:35 AM 53.6 °F 42.8 °F 67% 30.07 in 10.0 mi Calm Calm - N/A   Clear
7:15 AM 51.8 °F 44.6 °F 76% 30.07 in 10.0 mi Calm Calm - N/A   Clear
8:15 AM 50.0 °F 44.6 °F 82% 30.07 in 10.0 mi Calm Calm - N/A   Clear
8:35 AM 53.6 °F 44.6 °F 72% 30.07 in 10.0 mi Calm Calm - N/A   Clear
9:15 AM 59.0 °F 46.4 °F 63% 30.08 in 10.0 mi Calm Calm - N/A   Clear
9:35 AM 60.8 °F 46.4 °F 59% 30.08 in 10.0 mi Calm Calm - N/A   Clear
9:55 AM 62.6 °F 46.4 °F 55% 30.07 in 10.0 mi Calm Calm - N/A   Clear
10:15 AM 64.4 °F 46.4 °F 52% 30.08 in 10.0 mi Calm Calm - N/A   Clear
10:35 AM 64.4 °F 44.6 °F 49% 30.08 in 10.0 mi Calm Calm - N/A   Clear
11:15 AM 66.2 °F 48.2 °F 52% 30.08 in 10.0 mi Calm Calm - N/A   Clear
11:35 AM 66.2 °F 46.4 °F 49% 30.08 in 10.0 mi Calm Calm - N/A   Clear
11:55 AM 66.2 °F 46.4 °F 49% 30.08 in 10.0 mi Calm Calm - N/A   Clear
12:15 PM 68.0 °F 46.4 °F 46% 30.07 in 10.0 mi Calm Calm - N/A   Clear
12:35 PM 69.8 °F 48.2 °F 46% 30.07 in 10.0 mi Calm Calm - N/A   Clear
12:55 PM 69.8 °F 46.4 °F 43% 30.06 in 10.0 mi Calm Calm - N/A   Clear
1:15 PM 71.6 °F 48.2 °F 43% 30.04 in 10.0 mi Calm Calm - N/A   Clear
1:35 PM 73.4 °F 48.2 °F 41% 30.03 in 10.0 mi Calm Calm - N/A   Clear
1:55 PM 75.2 °F 48.2 °F 38% 30.03 in 10.0 mi West 6.9 mph - N/A   Clear
2:15 PM 73.4 °F 48.2 °F 41% 30.03 in 10.0 mi West 8.1 mph - N/A   Clear
2:35 PM 71.6 °F 48.2 °F 43% 30.03 in 10.0 mi West 4.6 mph - N/A   Clear
2:55 PM 71.6 °F 48.2 °F 43% 30.02 in 10.0 mi Calm Calm - N/A   Clear
3:15 PM 71.6 °F 48.2 °F 43% 30.01 in 10.0 mi West 4.6 mph - N/A   Clear
3:35 PM 73.4 °F 48.2 °F 41% 30.01 in 10.0 mi WNW 4.6 mph - N/A   Clear
3:55 PM 71.6 °F 48.2 °F 43% 30.00 in 10.0 mi Calm Calm - N/A   Clear
4:15 PM 73.4 °F 48.2 °F 41% 30.00 in 10.0 mi West 4.6 mph - N/A   Clear
4:35 PM 73.4 °F 48.2 °F 41% 30.00 in 10.0 mi WNW 3.5 mph - N/A   Clear
4:55 PM 73.4 °F 48.2 °F 41% 29.99 in 10.0 mi Calm Calm - N/A   Clear
5:15 PM 71.6 °F 48.2 °F 43% 29.99 in 10.0 mi WNW 6.9 mph - N/A   Clear
5:35 PM 71.6 °F 48.2 °F 43% 29.99 in 10.0 mi Calm Calm - N/A   Clear
5:55 PM 71.6 °F 48.2 °F 43% 29.99 in 10.0 mi Calm Calm - N/A   Clear
6:15 PM 69.8 °F 50.0 °F 49% 29.99 in 10.0 mi Calm Calm - N/A   Clear
6:35 PM 64.4 °F 51.8 °F 64% 29.99 in 10.0 mi Calm Calm - N/A   Clear
6:55 PM 64.4 °F 50.0 °F 59% 29.99 in 10.0 mi Calm Calm - N/A   Clear
7:15 PM 60.8 °F 51.8 °F 72% 29.98 in 10.0 mi Calm Calm - N/A   Clear
7:35 PM 60.8 °F 51.8 °F 72% 29.99 in 10.0 mi Calm Calm - N/A   Clear
7:55 PM 60.8 °F 51.8 °F 72% 30.00 in 10.0 mi Calm Calm - N/A   Clear
8:15 PM 62.6 °F 51.8 °F 68% 29.99 in 10.0 mi Calm Calm - N/A   Clear
8:35 PM 59.0 °F 51.8 °F 77% 29.99 in 10.0 mi Calm Calm - N/A   Clear
9:15 PM 59.0 °F 51.8 °F 77% 30.00 in 10.0 mi Calm Calm - N/A   Clear
9:35 PM 59.0 °F 51.8 °F 77% 30.00 in 10.0 mi Calm Calm - N/A   Clear
9:55 PM 57.2 °F 51.8 °F 82% 30.00 in 10.0 mi Calm Calm - N/A   Clear
10:15 PM 60.8 °F 53.6 °F 77% 30.01 in 10.0 mi Calm Calm - N/A   Clear
10:35 PM 60.8 °F 53.6 °F 77% 30.00 in 10.0 mi East 4.6 mph - N/A   Clear
10:55 PM 60.8 °F 51.8 °F 72% 30.01 in 10.0 mi Calm Calm - N/A   Clear
11:15 PM 60.8 °F 51.8 °F 72% 30.01 in 10.0 mi ESE 6.9 mph - N/A   Clear
11:35 PM 60.8 °F 51.8 °F 72% 30.01 in 10.0 mi Calm Calm - N/A   Clear
11:55 PM 59.0 °F 51.8 °F 77% 30.01 in 10.0 mi East 4.6 mph - N/A   Clear